This demonstration page uses our WeatherBlox Daily Observations layout. Learn more.

Left ArrowRight Arrow

Hourly Observations for December 9, 2022

Temp ( °F °C ) Dew Point ( °F °C ) Humidity (%) Winds ( mph kmh ) Pressure ( in mb ) Visibility ( mi km ) Precip ( " mm )
12:17 am 00:17 Mostly Cloudy 54 12.2 53 11.7 97 97 WSW 6 9 30.11 1020 8 13 0.00 0.00
12:26 am 00:26 Partly Cloudy 53 11.7 53 11.7 100 100 WSW 6 9 30.11 1020 7 11 0.00 0.00
12:52 am 00:52 Partly Cloudy 53 11.7 51 10.6 93 93 W 8 13 30.10 1019 9 14 0.00 0.00
1:52 am 01:52 Clear 50 10 48 8.9 93 93 W 8 13 30.11 1020 8 13 0.00 0.00
2:52 am 02:52 Clear with Mist and Fog 48 8.9 46 7.8 93 93 WSW 6 9 30.11 1020 6 10 0.00 0.00
3:52 am 03:52 Clear with Mist and Fog 46 7.8 44 6.7 93 93 W 7 11 30.11 1020 5 8 0.00 0.00
4:28 am 04:28 Partly Cloudy with Mist and Fog 46 7.8 45 7.2 96 96 W 8 13 30.14 1021 6 10 0.00 0.00
4:36 am 04:36 Mostly Cloudy with Mist and Fog 46 7.8 45 7.2 96 96 W 9 15 30.14 1021 6 10 0.00 0.00
4:52 am 04:52 Cloudy 46 7.8 44 6.7 93 93 WNW 10 17 30.12 1020 7 11 0.00 0.00
5:52 am 05:52 Partly Cloudy 43 6.1 41 5 93 93 WNW 10 17 30.14 1021 8 13 0.00 0.00
6:52 am 06:52 Clear 41 5 39 3.9 93 93 W 6 9 30.16 1021 8 13 0.00 0.00
7:52 am 07:52 Sunny 40 4.4 38 3.3 93 93 WNW 6 9 30.16 1021 10 16 0.00 0.00
8:52 am 08:52 Sunny 43 6.1 37 2.8 79 79 W 12 19 30.17 1022 10 16 0.00 0.00
9:52 am 09:52 Sunny 44 6.7 36 2.2 73 73 WNW 9 15 30.18 1022 10 16 0.00 0.00
10:52 am 10:52 Sunny 47 8.3 37 2.8 68 68 WNW 9 15 30.18 1022 10 16 0.00 0.00
11:52 am 11:52 Sunny 48 8.9 36 2.2 63 63 W 12 19 30.16 1021 10 16 0.00 0.00
12:52 pm 12:52 Sunny 50 10 37 2.8 61 61 W 12 19 30.14 1021 10 16 0.00 0.00
1:52 pm 13:52 Sunny 50 10 37 2.8 61 61 W 9 15 30.13 1020 10 16 0.00 0.00
2:52 pm 14:52 Sunny 50 10 36 2.2 58 58 W 8 13 30.14 1021 10 16 0.00 0.00
3:52 pm 15:52 Sunny 49 9.4 37 2.8 63 63 WNW 6 9 30.14 1021 10 16 0.00 0.00
4:52 pm 16:52 Sunny 47 8.3 36 2.2 65 65 WNW 5 7 30.15 1021 10 16 0.00 0.00
5:52 pm 17:52 Clear 44 6.7 36 2.2 73 73 Calm 30.15 1021 10 16 0.00 0.00
6:52 pm 18:52 Clear 39 3.9 34 1.1 82 82 Calm 30.16 1021 10 16 0.00 0.00
7:52 pm 19:52 Clear 38 3.3 34 1.1 85 85 Calm 30.16 1021 10 16 0.00 0.00
8:52 pm 20:52 Clear 37 2.8 34 1.1 89 89 Calm 30.16 1021 10 16 0.00 0.00
9:52 pm 21:52 Clear 38 3.3 34 1.1 85 85 ENE 7 11 30.13 1020 10 16 0.00 0.00
10:52 pm 22:52 Clear 40 4.4 35 1.7 83 83 E 3 6 30.12 1020 10 16 0.00 0.00
11:52 pm 23:52 Cloudy 41 5 37 2.8 86 86 Calm 30.13 1020 10 16 0.00 0.00

Powered by AerisWeather